This demonstration page uses our WeatherBlox Daily Observations layout. Learn more.

Left ArrowRight Arrow

30.21309, -93.2044

Hourly Observations for May 28, 2015

Temp ( °F °C ) Dew Point ( °F °C ) Humidity (%) Winds ( mph kmh ) Pressure ( in mb ) Visibility ( mi km ) Precip ( " mm )
12:15 am 00:15 Clear 73 23 72 22 94 94 Calm 30.09 1019 10 16 0.00 0.00
12:35 am 00:35 Clear 73 22.6 71 21.7 95 95 SE 3 6 30.09 1019 10 16 0.00 0.00
12:55 am 00:55 Clear 72 22.3 71 21.8 97 97 Calm 30.09 1019 10 16 0.00 0.00
1:15 am 01:15 Clear 72 22.1 71 21.5 96 96 SE 3 6 30.09 1019 10 16 0.00 0.00
1:35 am 01:35 Clear 72 22.1 71 21.6 97 97 Calm 30.09 1019 10 16 0.00 0.00
1:55 am 01:55 Clear 72 22 71 21.5 97 97 SE 3 6 30.06 1018 10 16 0.00 0.00
2:15 am 02:15 Clear 72 22.3 71 21.6 96 96 Calm 30.06 1018 10 16 0.00 0.00
2:35 am 02:35 Clear 72 22 71 21.5 97 97 Calm 30.06 1018 10 16 0.00 0.00
2:55 am 02:55 Clear 72 22 71 21.4 96 96 E 5 7 30.06 1018 10 16 0.00 0.00
3:15 am 03:15 Clear 71 21.7 70 21.3 98 98 E 5 7 30.06 1018 10 16 0.00 0.00
3:35 am 03:35 Clear 72 22 71 21.5 97 97 E 5 7 30.06 1018 10 16 0.00 0.00
3:55 am 03:55 Clear 72 22 71 21.5 97 97 Calm 30.06 1018 10 16 0.00 0.00
4:15 am 04:15 Clear 72 22 71 21.5 97 97 Calm 30.06 1018 10 16 0.00 0.00
4:35 am 04:35 Clear 71 21.5 70 21.2 98 98 Calm 30.06 1018 10 16 0.00 0.00
4:55 am 04:55 Clear 71 21.5 70 21.1 98 98 ENE 3 6 30.06 1018 10 16 0.00 0.00
5:15 am 05:15 Clear 71 21.5 70 21 97 97 ENE 3 6 30.09 1019 10 16 0.00 0.00
6:00 am 06:00 Mostly Clear 72 22 70 21 94 94 Calm 30.09 1019 10 16 0.00 0.00
6:55 am 06:55 Mostly Sunny 72 22 70 21 94 94 Calm 30.12 1020 10 16 0.00 0.00
7:53 am 07:53 Mostly Sunny 75 24 72 22 89 89 Calm 30.09 1019 10 16 0.00 0.00
8:50 am 08:50 Mostly Sunny 77 25 73 23 89 89 Calm 30.09 1019 10 16 0.00 0.00
9:55 am 09:55 Mostly Cloudy 81 27 73 23 79 79 SSE 3 6 30.09 1019 10 16 0.00 0.00
11:55 am 11:55 Partly Cloudy 84 29 73 23 70 70 SSE 6 9 30.12 1020 10 16 0.00 0.00
12:50 pm 12:50 Partly Cloudy 86 30 72 22 62 62 ESE 3 6 30.12 1020 10 16 0.00 0.00
1:50 pm 13:50 Partly Cloudy 88 31 72 22 59 59 ESE 6 9 30.09 1019 10 16 0.00 0.00
2:50 pm 14:50 Partly Cloudy 88 31 72 22 59 59 SE 6 9 30.06 1018 10 16 0.00 0.00
3:50 pm 15:50 Mostly Cloudy 88 31 72 22 59 59 SSE 3 6 30.03 1017 10 16 0.00 0.00
4:50 pm 16:50 Partly Cloudy 88 31 70 21 55 55 E 3 6 30.03 1017 10 16 0.00 0.00
5:50 pm 17:50 Mostly Sunny 88 31 68 20 52 52 SE 7 11 30.03 1017 10 16 0.00 0.00
6:50 pm 18:50 Partly Cloudy 82 28 73 23 74 74 SSE 9 15 30.00 1016 10 16 0.00 0.00
7:50 pm 19:50 Partly Cloudy 81 27 73 23 79 79 S 7 11 30.00 1016 10 16 0.00 0.00
8:50 pm 20:50 Mostly Clear 77 25 73 23 89 89 SSE 7 11 30.00 1016 10 16 0.00 0.00
9:50 pm 21:50 Mostly Clear 75 24 73 23 94 94 SSE 5 7 30.00 1016 7 11 0.00 0.00
10:15 pm 22:15 Clear with Mist and Fog 75 24 73 23 94 94 SE 6 9 30.03 1017 5 8 0.00 0.00
10:35 pm 22:35 Clear 74 23.6 73 22.8 95 95 SSE 5 7 30.03 1017 7 11 0.00 0.00
10:55 pm 22:55 Clear 75 23.7 73 23 96 96 S 3 6 30.03 1017 10 16 0.00 0.00
11:15 pm 23:15 Clear 75 24 73 23 94 94 SSE 5 7 30.03 1017 10 16 0.00 0.00
11:35 pm 23:35 Clear 75 24 74 23.1 95 95 SSE 5 7 30.03 1017 10 16 0.00 0.00
11:55 pm 23:55 Clear with Mist and Fog 74 23.3 73 22.9 98 98 SSE 5 7 30.03 1017 4 6 0.00 0.00

Powered by AerisWeather